Wind_Speed
10 10 9 8 7 7 7 8 10 14 14 17 17 20 19 21 22 22 24 24 25 26 26 27 27 27 28 29 29 30 31 31 31 30 29 29 28 27
11 11 10 10 8 8 8 8 10 13 15 16 18 19 21 19 21 21 22 24 25 25 26 26 26 27 28 28 29 30 30 31 31 30 29 28 28 27
12 12 12 11 10 9 8 9 11 12 14 16 17 17 19 20 20 20 19 20 23 24 24 25 26 27 28 28 28 29 30 30 29 28 28 28 28 28
12 14 13 12 11 10 10 10 12 13 13 15 15 17 17 18 19 21 23 20 23 24 24 25 26 26 26 26 27 27 29 29 28 28 27 27 27 28
14 15 14 14 12 11 11 11 12 13 14 15 17 17 17 17 17 18 19 21 20 23 24 24 25 26 26 26 25 26 27 28 28 27 27 27 27 27
15 16 15 14 13 12 12 12 13 13 15 15 15 16 16 17 19 19 18 19 21 19 19 20 22 23 23 24 24 25 26 27 27 26 26 26 26 26
16 17 15 16 15 14 13 13 14 14 15 15 16 16 16 16 16 18 19 19 20 22 22 21 21 22 22 22 23 25 25 26 26 26 25 26 26 26
17 15 17 16 16 15 15 15 15 15 15 15 16 16 17 16 17 17 17 18 17 20 21 24 25 25 25 26 26 24 23 24 25 25 25 25 25 26
17 18 18 17 17 17 17 16 16 15 15 15 15 16 16 16 16 16 17 17 18 18 19 20 21 23 23 23 22 22 22 23 23 24 24 25 25 26
18 20 19 19 19 18 18 17 17 16 16 15 15 16 16 16 16 16 17 17 17 18 18 18 20 20 20 20 20 21 21 22 23 23 24 25 25 25
20 21 19 20 20 20 19 19 17 17 17 16 16 16 16 16 16 16 16 17 17 17 18 18 19 20 20 20 19 20 20 21 22 22 23 24 26 27
21 22 21 20 21 21 21 20 18 18 18 17 16 16 16 16 16 16 16 16 17 17 17 17 18 18 19 20 20 20 19 20 21 21 21 22 23 25
21 22 22 21 22 22 22 21 19 19 18 18 17 17 17 17 17 16 16 17 17 17 17 17 17 18 18 19 20 20 21 21 21 21 20 20 20 21
21 23 23 23 23 24 23 21 22 20 20 19 18 18 18 17 16 16 17 17 17 17 17 17 17 18 19 20 20 20 20 20 21 21 22 21 21 20
22 23 23 25 26 24 23 23 23 22 21 20 20 20 19 19 18 17 17 18 18 17 18 18 17 18 19 20 20 21 20 21 21 21 21 20 20 20
22 23 22 25 27 25 24 24 24 23 22 21 21 21 20 20 20 18 18 19 19 19 18 18 19 19 19 20 21 21 21 21 20 21 21 21 21 20
26 27 24 23 26 26 25 26 26 25 24 23 23 22 22 22 22 21 19 19 19 20 20 20 21 21 20 21 21 22 20 21 21 21 21 21 22 21
30 30 27 26 29 29 29 28 27 26 25 26 25 24 24 24 23 23 21 20 20 21 21 21 21 21 21 20 23 22 23 22 22 22 21 21 20 22
33 31 29 27 27 31 31 30 28 27 29 28 26 26 26 26 25 25 24 23 21 22 22 22 23 23 23 21 22 22 23 23 23 22 23 22 21 21
31 31 30 27 25 26 30 31 31 30 30 30 29 29 29 28 27 26 26 26 25 23 23 23 23 25 25 24 23 22 24 24 24 23 23 23 23 21
29 30 30 29 27 26 28 30 31 32 32 32 31 32 31 30 28 28 29 29 28 27 24 24 25 27 25 25 24 23 24 26 26 26 25 25 24 23
28 29 28 28 29 29 28 30 32 33 34 34 34 34 32 32 32 31 31 33 30 29 27 26 28 28 28 27 25 24 25 25 25 26 27 28 27 26
30 30 30 30 30 31 32 33 33 35 36 37 37 36 35 35 34 34 34 34 33 32 30 29 29 30 30 30 30 27 29 28 28 27 26 27 28 27
Wind_Direction
243 236 232 239 243 253 272 294 313 324 343 338 346 340 348 343 349 351 353 355 357 357 359 2 2 360 1 2 2 2 2 2 2 2 2 1 360 359
241 237 237 239 241 251 268 294 308 318 332 337 335 338 341 346 346 351 352 354 357 357 1 2 2 1 2 2 3 4 4 4 5 6 6 6 6 7
240 238 239 240 243 256 275 292 301 317 324 331 333 337 337 340 343 347 356 352 356 358 1 3 3 2 3 2 3 4 5 7 8 9 9 9 11 11
243 240 240 242 247 258 274 288 300 312 322 326 330 332 338 340 342 344 347 0 359 360 2 4 3 3 3 3 3 5 7 8 8 9 9 9 9 12
246 243 242 245 250 259 272 285 298 308 317 324 329 333 337 340 339 344 347 351 358 1 1 3 1 4 3 4 3 5 7 7 8 8 7 7 7 7
249 246 245 250 254 261 271 283 293 304 313 321 327 330 335 337 339 342 346 351 353 359 2 3 1 4 5 4 2 5 7 6 6 6 6 5 5 5
251 250 248 249 255 263 271 280 290 300 309 318 324 329 334 335 335 339 343 348 350 352 355 2 3 7 7 4 6 8 6 3 4 5 6 4 3 3
254 251 249 253 257 263 271 278 287 297 305 314 321 327 333 336 336 335 338 343 347 349 353 356 1 2 3 6 6 4 1 0 2 3 5 5 3 3
257 253 252 254 259 263 269 276 285 293 300 311 317 324 330 334 332 331 334 339 342 346 349 355 359 359 1 0 2 359 358 359 359 1 4 5 4 3
262 255 256 255 259 263 268 274 281 288 295 305 313 320 326 329 331 329 331 334 336 340 344 351 355 357 359 357 357 359 360 358 357 358 1 4 4 4
265 259 257 257 260 264 269 273 278 284 291 300 308 315 320 324 327 326 326 328 331 334 338 344 350 353 353 356 358 358 358 357 357 356 357 0 1 2
270 263 259 258 259 264 268 272 277 281 287 293 301 308 314 319 322 323 320 320 325 329 333 338 344 348 349 351 353 356 355 358 357 354 354 356 357 358
272 268 261 257 259 264 268 272 275 276 281 287 295 301 308 313 316 318 317 317 319 323 327 330 336 341 346 347 347 352 353 354 356 353 351 352 353 355
276 271 261 259 259 264 268 271 273 276 278 283 288 295 302 306 308 312 314 312 311 315 321 325 328 335 340 343 344 345 348 350 352 352 350 349 348 351
275 276 265 257 259 263 269 270 271 275 277 280 284 290 295 301 305 309 310 311 309 309 314 318 322 327 333 338 340 339 342 344 346 348 347 348 347 346
277 279 275 262 260 262 267 271 273 274 275 278 281 284 289 294 300 303 305 307 309 306 304 308 316 321 327 331 335 335 336 338 339 342 344 343 346 345
264 270 269 261 261 262 263 266 269 272 276 276 278 281 285 288 293 298 302 304 305 305 302 304 308 313 319 324 330 329 331 332 333 335 339 341 340 344
267 271 275 271 261 259 260 263 267 270 274 275 276 278 282 284 287 292 298 301 301 300 302 300 299 301 306 317 319 324 326 327 328 329 331 336 336 334
272 276 276 278 279 270 264 264 265 267 268 272 275 277 278 280 284 288 293 296 296 295 297 298 299 298 300 305 308 314 317 321 322 324 324 326 329 329
275 279 279 275 275 278 272 266 265 265 267 270 272 274 275 278 281 285 287 288 291 290 290 292 295 295 298 300 306 310 310 315 317 319 318 320 321 323
276 278 277 274 270 270 271 268 265 266 266 267 268 271 275 278 280 280 281 284 286 287 288 287 287 290 293 296 300 303 306 309 314 317 314 313 313 315
271 273 272 267 267 268 268 267 263 261 264 266 268 270 272 275 276 277 278 280 281 283 285 283 284 285 288 291 293 298 301 303 308 313 314 311 310 311
274 272 267 263 262 265 269 270 268 261 258 261 264 268 270 274 276 277 277 278 280 280 281 282 281 283 285 286 289 292 297 300 302 305 312 312 309 308
Height
3175 3175 3177 3178 3179 3180 3179 3178 3176 3174 3174 3172 3170 3167 3165 3161 3158 3155 3150 3146 3141 3137 3132 3127 3122 3117 3113 3108 3103 3097 3091 3086 3080 3074 3069 3064 3059 3055
3172 3174 3175 3177 3177 3178 3178 3177 3175 3173 3173 3171 3168 3166 3163 3160 3156 3154 3149 3145 3140 3136 3131 3126 3122 3117 3112 3107 3102 3097 3092 3086 3080 3075 3070 3065 3060 3055
3170 3172 3173 3175 3175 3176 3176 3175 3174 3173 3171 3170 3167 3165 3161 3158 3155 3152 3150 3145 3140 3135 3131 3126 3121 3116 3112 3107 3102 3097 3092 3086 3081 3076 3071 3066 3061 3055
3169 3170 3171 3172 3173 3173 3173 3173 3172 3171 3170 3167 3166 3162 3160 3156 3153 3149 3145 3144 3138 3134 3129 3125 3121 3116 3112 3107 3102 3097 3092 3087 3082 3076 3072 3067 3062 3057
3166 3167 3168 3169 3170 3170 3171 3171 3170 3168 3167 3165 3162 3160 3157 3155 3152 3149 3145 3140 3138 3133 3128 3124 3120 3115 3111 3107 3103 3098 3093 3088 3083 3078 3073 3068 3063 3058
3163 3164 3165 3167 3167 3168 3168 3168 3168 3166 3164 3162 3160 3158 3155 3152 3149 3146 3143 3139 3135 3134 3131 3126 3121 3116 3111 3107 3103 3099 3094 3089 3084 3079 3074 3069 3064 3059
3159 3160 3162 3163 3164 3165 3165 3165 3165 3164 3162 3160 3157 3155 3153 3150 3148 3144 3141 3137 3134 3130 3127 3125 3121 3116 3111 3108 3103 3097 3093 3090 3085 3080 3075 3070 3065 3060
3155 3157 3157 3159 3160 3161 3162 3161 3161 3160 3159 3157 3154 3152 3149 3147 3145 3143 3140 3136 3134 3130 3126 3121 3117 3113 3109 3104 3100 3097 3094 3090 3086 3081 3076 3071 3066 3061
3152 3153 3154 3155 3156 3157 3157 3158 3157 3157 3155 3153 3152 3149 3147 3145 3143 3140 3137 3135 3132 3129 3126 3122 3117 3113 3109 3104 3101 3098 3094 3090 3086 3081 3076 3071 3066 3061
3148 3149 3150 3150 3152 3152 3153 3154 3153 3153 3151 3150 3148 3146 3144 3142 3140 3138 3135 3132 3130 3127 3124 3121 3117 3114 3110 3105 3101 3098 3093 3089 3085 3081 3076 3072 3067 3062
3143 3144 3145 3146 3147 3147 3148 3149 3149 3148 3147 3146 3145 3143 3141 3139 3137 3135 3133 3130 3128 3125 3122 3119 3116 3112 3108 3105 3101 3096 3092 3089 3084 3080 3076 3071 3067 3062
3138 3139 3140 3141 3142 3142 3143 3144 3145 3144 3143 3142 3141 3139 3138 3136 3134 3131 3129 3127 3125 3123 3120 3118 3114 3111 3108 3103 3099 3095 3091 3087 3083 3079 3075 3070 3066 3062
3133 3134 3135 3136 3136 3137 3138 3139 3139 3139 3139 3138 3137 3136 3134 3132 3130 3128 3126 3124 3122 3120 3117 3114 3111 3108 3105 3102 3098 3093 3089 3085 3082 3078 3074 3070 3066 3062
3127 3128 3130 3130 3131 3131 3132 3133 3133 3134 3133 3133 3132 3131 3130 3128 3127 3125 3123 3121 3119 3116 3114 3111 3109 3106 3102 3099 3096 3092 3088 3084 3080 3076 3072 3068 3064 3060
3122 3123 3124 3124 3125 3126 3127 3127 3127 3128 3128 3128 3127 3126 3125 3124 3122 3120 3119 3117 3115 3112 3110 3108 3106 3103 3099 3096 3094 3090 3086 3082 3079 3075 3070 3066 3062 3058
3116 3116 3117 3118 3119 3120 3121 3122 3122 3122 3122 3122 3121 3120 3119 3118 3117 3115 3114 3112 3110 3108 3106 3104 3102 3099 3096 3093 3090 3087 3083 3080 3076 3072 3069 3064 3060 3056
3109 3109 3110 3111 3112 3114 3115 3115 3115 3116 3116 3115 3115 3114 3114 3113 3111 3110 3108 3107 3105 3103 3101 3099 3097 3095 3092 3089 3087 3084 3081 3077 3074 3070 3066 3062 3058 3054
3101 3102 3103 3104 3105 3106 3107 3108 3109 3109 3109 3108 3108 3107 3107 3106 3105 3104 3103 3101 3099 3097 3096 3094 3092 3090 3088 3086 3082 3080 3077 3073 3070 3066 3062 3059 3056 3051
3093 3094 3097 3097 3099 3099 3100 3100 3102 3102 3100 3100 3100 3100 3099 3099 3098 3097 3096 3095 3093 3091 3090 3088 3085 3084 3082 3080 3078 3075 3072 3069 3066 3062 3058 3055 3051 3048
3087 3087 3088 3090 3091 3091 3091 3092 3093 3093 3093 3093 3092 3092 3092 3091 3091 3090 3088 3087 3086 3084 3083 3081 3080 3077 3075 3073 3071 3070 3066 3063 3059 3057 3053 3050 3047 3043
3080 3080 3080 3081 3082 3083 3083 3083 3084 3084 3084 3084 3084 3083 3084 3083 3083 3082 3080 3079 3077 3076 3076 3075 3072 3070 3068 3066 3064 3063 3060 3056 3053 3050 3048 3045 3042 3039
3072 3071 3071 3071 3072 3073 3074 3074 3073 3074 3074 3073 3074 3074 3074 3074 3073 3073 3072 3070 3069 3068 3067 3066 3064 3062 3061 3058 3056 3054 3053 3050 3047 3044 3041 3038 3035 3032
3064 3063 3062 3061 3062 3063 3063 3063 3064 3063 3063 3062 3062 3063 3064 3063 3063 3062 3062 3061 3060 3059 3058 3057 3055 3053 3052 3050 3048 3047 3045 3043 3041 3039 3037 3033 3029 3026